Location: Newark
(49.4900°N, 20.6656°E)
Time: 16:43:10
(UTC+00:00)

STARLINK-1738 - Pass Details

Date: 24 September 2020
Orbit: 378 x 381 km, 53.0° (Epoch: 30 October)

Event Time Altitude Azimuth Distance (km) Brightness Sun altitude
Exits shadow 01:41:32 26° 52° (NE) 853 5.2 -26.2°
Drops below altitude 10° 01:43:16 10° 69° (ENE) 1,481 6.8 -26.0°
Sets 01:45:25 0° 75° (ENE) 2,343 8.0 -25.7°
